Flag for U.S.A. Weather past 2 weeks in Naples, Florida, U.S.A.

Now
78 °F

Passing clouds.


Feels Like: 80 °F
Forecast: 65 / 79 °F
Wind: 13 mph from West

Location: Naples Municipal

Current Time: Apr 1, 2015 at 5:25:19 PM

Latest Report: Apr 1, 2015 at 4:53 PM


Visibility: 10 mi

Pressure: 30.07 "Hg

Humidity: 54%

Dew point: 60 °F

Location of NaplesLocation

Historic Weather in Naples — Graph

°F

Naples temperature yesterday

Maximum temperature yesterday: 79 °F (at 1:53 PM)
Minimum temperature yesterday: 59 °F (at 4:53 AM)
Average temperature yesterday: 69 °F

Past Weeks' High & Low Weather Summary

 TemperatureHumidityPressure
High86 °F (Mar 26, 2:00 PM)100% (Mar 22, 5:53 AM)30.32 "Hg (Mar 22, 5:53 AM)
Low52 °F (Mar 30, 6:53 AM)29% (Mar 29, 3:53 PM)29.88 "Hg (Mar 27, 2:53 PM)
Average72 °F73%30.06 "Hg
* Reported Mar 17 3:53 PM — Apr 1 3:53 PM, Naples, Weather by CustomWeather, © 2015

Note: Actual official high and low records may vary slightly from our data, if they occured in-between our weather recording intervals... More about our weather records

Advertising

Naples weather history for previous 24 hours

 ConditionsComfort  
Time TempWeatherWind HumidityBarometerVisibility
3:53 PM
Wed, Apr 1
79 °FSunny.10 mph48%30.09 "Hg10 mi
2:53 PM79 °FSunny.14 mph50%30.10 "Hg10 mi
1:53 PM80 °FScattered clouds.13 mph45%30.12 "Hg10 mi
12:53 PM79 °FSunny.8 mph48%30.15 "Hg10 mi
11:53 AM77 °FSunny.6 mph56%30.17 "Hg10 mi
10:53 AM76 °FSunny.3 mph56%30.16 "Hg10 mi
9:53 AM74 °FSunny.No wind62%30.16 "Hg10 mi
8:53 AM70 °FSunny.3 mph84%30.15 "Hg9 mi
7:53 AM64 °FFog.No wind94%30.13 "Hg6 mi
6:53 AM63 °FClear.No wind97%30.11 "Hg7 mi
5:53 AM63 °FClear.No wind93%30.10 "Hg9 mi
4:53 AM65 °FClear.3 mph94%30.09 "Hg9 mi
3:53 AM65 °FClear.No wind91%30.09 "Hg9 mi
2:53 AM65 °FClear.No wind94%30.10 "Hg10 mi
1:53 AM65 °FClear.No wind94%30.12 "Hg10 mi
12:53 AM66 °FClear.No wind90%30.13 "Hg10 mi
11:53 PM
Tue, Mar 31
68 °FClear.No wind84%30.13 "Hg10 mi
10:53 PM69 °FClear.No wind81%30.13 "Hg10 mi
9:53 PM71 °FClear.3 mph76%30.12 "Hg10 mi
8:53 PM71 °FClear.7 mph76%30.10 "Hg10 mi
7:53 PM72 °FSunny.8 mph73%30.10 "Hg10 mi
6:53 PM74 °FSunny.10 mph71%30.09 "Hg10 mi
5:53 PM75 °FSunny.10 mph66%30.09 "Hg10 mi
Weather by CustomWeather, © 2015

See weather overviewHow to use our weather pages